Time,TemperatureF,DewpointF,PressureIn,WindDirection,WindDirectionDegrees,WindSpeedMPH,WindSpeedGustMPH,Humidity,HourlyPrecipIn,Conditions,Clouds,dailyrainin,SoftwareType,DateUTC
2013-06-10 00:01:00,75.0,75.0,30.21,SW,225,0.0,0.0,100,0.00,,,0.00,Rainwise IP-100,2013-06-10 04:01:00,
2013-06-10 00:06:00,75.0,75.0,30.21,ENE,67,0.0,0.0,100,0.00,,,0.00,Rainwise IP-100,2013-06-10 04:06:00,
2013-06-10 00:11:00,75.0,75.0,30.21,ENE,67,0.0,0.0,100,0.00,,,0.00,Rainwise IP-100,2013-06-10 04:11:00,
2013-06-10 00:16:00,75.0,75.0,30.21,NW,315,0.0,0.0,100,0.00,,,0.00,Rainwise IP-100,2013-06-10 04:16:00,
2013-06-10 00:21:00,75.0,75.0,30.20,NW,315,0.0,0.0,100,0.00,,,0.00,Rainwise IP-100,2013-06-10 04:21:00,
2013-06-10 00:26:00,75.0,75.0,30.20,NW,315,0.0,0.0,100,0.00,,,0.00,Rainwise IP-100,2013-06-10 04:26:00,
2013-06-10 00:31:00,75.0,75.0,30.20,NW,315,0.0,0.0,100,0.00,,,0.00,Rainwise IP-100,2013-06-10 04:31:00,
2013-06-10 00:36:00,75.0,75.0,30.20,NW,315,0.0,0.0,100,0.00,,,0.00,Rainwise IP-100,2013-06-10 04:36:00,
2013-06-10 00:41:00,75.0,75.0,30.20,NE,45,0.0,2.0,100,0.00,,,0.00,Rainwise IP-100,2013-06-10 04:41:00,
2013-06-10 00:46:00,75.0,75.0,30.20,ESE,112,0.0,0.0,100,0.00,,,0.00,Rainwise IP-100,2013-06-10 04:46:00,
2013-06-10 00:51:00,75.0,75.0,30.20,SE,135,0.0,0.0,100,0.00,,,0.00,Rainwise IP-100,2013-06-10 04:51:00,
2013-06-10 00:56:00,75.0,75.0,30.20,SE,135,0.0,0.0,100,0.00,,,0.00,Rainwise IP-100,2013-06-10 04:56:00,
2013-06-10 01:01:00,75.0,75.0,30.20,WNW,292,0.0,0.0,100,0.00,,,0.00,Rainwise IP-100,2013-06-10 05:01:00,
2013-06-10 01:06:00,75.0,75.0,30.20,South,180,0.0,0.0,100,0.00,,,0.00,Rainwise IP-100,2013-06-10 05:06:00,
2013-06-10 01:11:00,75.0,75.0,30.20,South,180,0.0,0.0,100,0.00,,,0.00,Rainwise IP-100,2013-06-10 05:11:00,
2013-06-10 01:16:00,75.0,75.0,30.20,South,180,0.0,0.0,100,0.00,,,0.00,Rainwise IP-100,2013-06-10 05:16:00,
2013-06-10 01:21:00,75.0,75.0,30.20,SSE,157,0.0,0.0,100,0.00,,,0.00,Rainwise IP-100,2013-06-10 05:21:00,
2013-06-10 01:26:00,75.0,75.0,30.20,SSE,157,0.0,0.0,100,0.00,,,0.00,Rainwise IP-100,2013-06-10 05:26:00,
2013-06-10 01:31:00,75.0,75.0,30.20,SSE,157,0.0,0.0,100,0.00,,,0.00,Rainwise IP-100,2013-06-10 05:31:00,
2013-06-10 01:36:00,75.0,75.0,30.20,SE,135,0.0,0.0,100,0.00,,,0.00,Rainwise IP-100,2013-06-10 05:36:00,
2013-06-10 01:41:00,75.0,75.0,30.20,SW,225,0.0,0.0,100,0.00,,,0.00,Rainwise IP-100,2013-06-10 05:41:00,
2013-06-10 01:46:00,76.0,76.0,30.20,SSW,202,0.0,0.0,100,0.00,,,0.00,Rainwise IP-100,2013-06-10 05:46:00,
2013-06-10 01:51:00,76.0,76.0,30.20,SSW,202,0.0,0.0,100,0.00,,,0.00,Rainwise IP-100,2013-06-10 05:51:00,
2013-06-10 01:56:00,76.0,76.0,30.19,SE,135,0.0,1.0,100,0.00,,,0.00,Rainwise IP-100,2013-06-10 05:56:00,
2013-06-10 02:01:00,76.0,76.0,30.19,SE,135,0.0,0.0,100,0.00,,,0.00,Rainwise IP-100,2013-06-10 06:01:00,
2013-06-10 02:06:00,76.0,76.0,30.19,SE,135,0.0,0.0,100,0.00,,,0.00,Rainwise IP-100,2013-06-10 06:06:00,
2013-06-10 02:10:00,76.0,76.0,30.19,SE,135,0.0,0.0,100,0.00,,,0.00,Rainwise IP-100,2013-06-10 06:10:00,
2013-06-10 02:11:00,76.0,76.0,30.19,SE,135,0.0,0.0,100,0.00,,,0.00,Rainwise IP-100,2013-06-10 06:11:00,
2013-06-10 02:16:00,76.0,76.0,30.19,SE,135,0.0,2.0,100,0.00,,,0.00,Rainwise IP-100,2013-06-10 06:16:00,
2013-06-10 02:21:00,76.0,76.0,30.19,SW,225,0.0,0.0,100,0.00,,,0.00,Rainwise IP-100,2013-06-10 06:21:00,
2013-06-10 02:26:00,76.0,76.0,30.18,SE,135,0.0,2.0,100,0.00,,,0.00,Rainwise IP-100,2013-06-10 06:26:00,
2013-06-10 02:31:00,76.0,76.0,30.18,SE,135,0.0,0.0,100,0.00,,,0.00,Rainwise IP-100,2013-06-10 06:31:00,
2013-06-10 02:36:00,76.0,76.0,30.18,North,360,0.0,0.0,100,0.00,,,0.00,Rainwise IP-100,2013-06-10 06:36:00,
2013-06-10 02:41:00,76.0,76.0,30.18,WNW,292,0.0,2.0,100,0.00,,,0.00,Rainwise IP-100,2013-06-10 06:41:00,
2013-06-10 02:46:00,76.0,76.0,30.18,WNW,292,0.0,0.0,100,0.00,,,0.00,Rainwise IP-100,2013-06-10 06:46:00,
2013-06-10 02:51:00,76.0,76.0,30.18,SSW,202,0.0,0.0,100,0.00,,,0.00,Rainwise IP-100,2013-06-10 06:51:00,
2013-06-10 02:56:00,76.0,76.0,30.18,NE,45,0.0,0.0,100,0.00,,,0.00,Rainwise IP-100,2013-06-10 06:56:00,
2013-06-10 03:01:00,76.0,76.0,30.18,South,180,0.0,0.0,100,0.00,,,0.00,Rainwise IP-100,2013-06-10 07:01:00,
2013-06-10 03:06:00,76.0,76.0,30.18,SSW,202,0.0,2.0,100,0.00,,,0.00,Rainwise IP-100,2013-06-10 07:06:00,
2013-06-10 03:11:00,76.0,76.0,30.17,SE,135,0.0,2.0,100,0.00,,,0.00,Rainwise IP-100,2013-06-10 07:11:00,
2013-06-10 03:16:00,76.0,76.0,30.18,South,180,0.0,0.0,100,0.00,,,0.00,Rainwise IP-100,2013-06-10 07:16:00,
2013-06-10 03:21:00,76.0,76.0,30.18,South,180,0.0,0.0,100,0.00,,,0.00,Rainwise IP-100,2013-06-10 07:21:00,
2013-06-10 03:26:00,76.0,76.0,30.18,SW,225,0.0,3.0,100,0.00,,,0.00,Rainwise IP-100,2013-06-10 07:26:00,
2013-06-10 03:31:00,76.0,76.0,30.17,SSE,157,0.0,2.0,100,0.00,,,0.00,Rainwise IP-100,2013-06-10 07:31:00,
2013-06-10 03:36:00,76.0,76.0,30.18,SSE,157,0.0,0.0,100,0.00,,,0.00,Rainwise IP-100,2013-06-10 07:36:00,
2013-06-10 03:41:00,76.0,76.0,30.18,SSE,157,0.0,0.0,100,0.00,,,0.00,Rainwise IP-100,2013-06-10 07:41:00,
2013-06-10 03:46:00,75.0,75.0,30.18,South,180,0.0,0.0,100,0.00,,,0.00,Rainwise IP-100,2013-06-10 07:46:00,
2013-06-10 03:51:00,75.0,75.0,30.18,South,180,0.0,0.0,100,0.00,,,0.00,Rainwise IP-100,2013-06-10 07:51:00,
2013-06-10 03:56:00,75.0,75.0,30.18,South,180,0.0,0.0,100,0.00,,,0.00,Rainwise IP-100,2013-06-10 07:56:00,
2013-06-10 04:01:00,75.0,75.0,30.18,South,180,0.0,0.0,100,0.00,,,0.00,Rainwise IP-100,2013-06-10 08:01:00,
2013-06-10 04:06:00,75.0,75.0,30.18,South,180,0.0,0.0,100,0.00,,,0.00,Rainwise IP-100,2013-06-10 08:06:00,
2013-06-10 04:11:00,75.0,75.0,30.18,SE,135,0.0,0.0,100,0.00,,,0.00,Rainwise IP-100,2013-06-10 08:11:00,
2013-06-10 04:16:00,75.0,75.0,30.18,SW,225,0.0,0.0,100,0.00,,,0.00,Rainwise IP-100,2013-06-10 08:16:00,
2013-06-10 04:21:00,75.0,75.0,30.18,SSW,202,0.0,0.0,100,0.00,,,0.00,Rainwise IP-100,2013-06-10 08:21:00,
2013-06-10 04:26:00,75.0,75.0,30.18,South,180,0.0,0.0,100,0.00,,,0.00,Rainwise IP-100,2013-06-10 08:26:00,
2013-06-10 04:31:00,75.0,75.0,30.17,South,180,0.0,0.0,100,0.00,,,0.00,Rainwise IP-100,2013-06-10 08:31:00,
2013-06-10 04:36:00,75.0,75.0,30.17,South,180,0.0,0.0,100,0.00,,,0.00,Rainwise IP-100,2013-06-10 08:36:00,
2013-06-10 04:41:00,75.0,75.0,30.17,South,180,0.0,0.0,100,0.00,,,0.00,Rainwise IP-100,2013-06-10 08:41:00,
2013-06-10 04:46:00,75.0,75.0,30.17,South,180,0.0,0.0,100,0.00,,,0.00,Rainwise IP-100,2013-06-10 08:46:00,
2013-06-10 04:51:00,75.0,75.0,30.17,South,180,0.0,0.0,100,0.00,,,0.00,Rainwise IP-100,2013-06-10 08:51:00,
2013-06-10 04:56:00,75.0,75.0,30.17,South,180,0.0,0.0,100,0.00,,,0.00,Rainwise IP-100,2013-06-10 08:56:00,
2013-06-10 05:01:00,75.0,75.0,30.17,South,180,0.0,0.0,100,0.00,,,0.00,Rainwise IP-100,2013-06-10 09:01:00,
2013-06-10 05:06:00,75.0,75.0,30.17,South,180,0.0,0.0,100,0.00,,,0.00,Rainwise IP-100,2013-06-10 09:06:00,
2013-06-10 05:11:00,75.0,75.0,30.17,SW,225,0.0,0.0,100,0.00,,,0.00,Rainwise IP-100,2013-06-10 09:11:00,
2013-06-10 05:16:00,75.0,75.0,30.17,SW,225,0.0,0.0,100,0.00,,,0.00,Rainwise IP-100,2013-06-10 09:16:00,
2013-06-10 05:21:00,75.0,75.0,30.17,SW,225,0.0,0.0,100,0.00,,,0.00,Rainwise IP-100,2013-06-10 09:21:00,
2013-06-10 05:26:00,75.0,75.0,30.17,SW,225,0.0,0.0,100,0.00,,,0.00,Rainwise IP-100,2013-06-10 09:26:00,
2013-06-10 05:31:00,75.0,75.0,30.17,SW,225,0.0,0.0,100,0.00,,,0.00,Rainwise IP-100,2013-06-10 09:31:00,
2013-06-10 05:36:00,75.0,75.0,30.17,South,180,0.0,0.0,100,0.00,,,0.00,Rainwise IP-100,2013-06-10 09:36:00,
2013-06-10 05:41:00,75.0,75.0,30.17,South,180,0.0,0.0,100,0.00,,,0.00,Rainwise IP-100,2013-06-10 09:41:00,
2013-06-10 05:46:00,75.0,75.0,30.17,South,180,0.0,0.0,100,0.00,,,0.00,Rainwise IP-100,2013-06-10 09:46:00,
2013-06-10 05:51:00,75.0,75.0,30.17,South,180,0.0,0.0,100,0.00,,,0.00,Rainwise IP-100,2013-06-10 09:51:00,
2013-06-10 05:56:00,75.0,75.0,30.17,SSW,202,0.0,2.0,100,0.00,,,0.00,Rainwise IP-100,2013-06-10 09:56:00,
2013-06-10 06:01:00,75.0,75.0,30.17,SSW,202,0.0,0.0,100,0.00,,,0.00,Rainwise IP-100,2013-06-10 10:01:00,
2013-06-10 06:06:00,75.0,75.0,30.16,SSW,202,0.0,0.0,100,0.00,,,0.00,Rainwise IP-100,2013-06-10 10:06:00,
2013-06-10 06:11:00,75.0,75.0,30.17,SSW,202,0.0,0.0,100,0.00,,,0.00,Rainwise IP-100,2013-06-10 10:11:00,
2013-06-10 06:16:00,75.0,75.0,30.17,SE,135,0.0,3.0,100,0.00,,,0.00,Rainwise IP-100,2013-06-10 10:16:00,
2013-06-10 06:21:00,75.0,75.0,30.16,South,180,0.0,1.0,100,0.00,,,0.00,Rainwise IP-100,2013-06-10 10:21:00,
2013-06-10 06:26:00,75.0,75.0,30.17,South,180,0.0,3.0,100,0.00,,,0.00,Rainwise IP-100,2013-06-10 10:26:00,
2013-06-10 06:31:00,75.0,75.0,30.17,SSW,202,0.0,3.0,100,0.00,,,0.00,Rainwise IP-100,2013-06-10 10:31:00,
2013-06-10 06:36:00,75.0,75.0,30.18,SSW,202,0.0,0.0,100,0.00,,,0.00,Rainwise IP-100,2013-06-10 10:36:00,
2013-06-10 06:41:00,75.0,75.0,30.18,SSW,202,0.0,2.0,100,0.00,,,0.00,Rainwise IP-100,2013-06-10 10:41:00,
2013-06-10 06:46:00,75.0,75.0,30.18,South,180,0.0,0.0,100,0.00,,,0.00,Rainwise IP-100,2013-06-10 10:46:00,
2013-06-10 06:51:00,75.0,75.0,30.18,SSW,202,1.0,3.0,100,0.00,,,0.00,Rainwise IP-100,2013-06-10 10:51:00,
2013-06-10 06:56:00,75.0,75.0,30.18,SE,135,0.0,3.0,100,0.00,,,0.00,Rainwise IP-100,2013-06-10 10:56:00,
2013-06-10 07:01:00,75.0,75.0,30.18,South,180,0.0,2.0,100,0.00,,,0.00,Rainwise IP-100,2013-06-10 11:01:00,
2013-06-10 07:06:00,76.0,76.0,30.18,South,180,0.0,2.0,100,0.00,,,0.00,Rainwise IP-100,2013-06-10 11:06:00,
2013-06-10 07:11:00,76.0,76.0,30.18,SSW,202,0.0,2.0,100,0.00,,,0.00,Rainwise IP-100,2013-06-10 11:11:00,
2013-06-10 07:16:00,76.0,76.0,30.18,South,180,0.0,2.0,100,0.00,,,0.00,Rainwise IP-100,2013-06-10 11:16:00,
2013-06-10 07:21:00,76.0,76.0,30.19,South,180,0.0,0.0,100,0.00,,,0.00,Rainwise IP-100,2013-06-10 11:21:00,
2013-06-10 07:26:00,76.0,76.0,30.19,South,180,0.0,2.0,100,0.00,,,0.00,Rainwise IP-100,2013-06-10 11:26:00,
2013-06-10 07:31:00,77.0,77.0,30.19,SE,135,0.0,7.0,100,0.00,,,0.00,Rainwise IP-100,2013-06-10 11:31:00,
2013-06-10 07:36:00,77.0,77.0,30.19,South,180,0.0,0.0,100,0.00,,,0.00,Rainwise IP-100,2013-06-10 11:36:00,
2013-06-10 07:41:00,77.0,76.8,30.19,SSE,157,0.0,6.0,99,0.00,,,0.00,Rainwise IP-100,2013-06-10 11:41:00,
2013-06-10 07:46:00,77.0,76.5,30.20,SE,135,0.0,6.0,98,0.00,,,0.00,Rainwise IP-100,2013-06-10 11:46:00,
2013-06-10 07:51:00,77.0,76.5,30.20,SSW,202,0.0,6.0,98,0.00,,,0.00,Rainwise IP-100,2013-06-10 11:51:00,
2013-06-10 07:56:00,78.0,77.0,30.20,SSW,202,0.0,4.0,97,0.00,,,0.00,Rainwise IP-100,2013-06-10 11:56:00,
2013-06-10 08:01:00,78.0,77.0,30.20,South,180,2.0,3.0,97,0.00,,,0.00,Rainwise IP-100,2013-06-10 12:01:00,
2013-06-10 08:06:00,78.0,76.5,30.20,South,180,0.0,3.0,95,0.00,,,0.00,Rainwise IP-100,2013-06-10 12:06:00,
2013-06-10 08:11:00,78.0,76.5,30.20,SW,225,0.0,5.0,95,0.00,,,0.00,Rainwise IP-100,2013-06-10 12:11:00,
2013-06-10 08:16:00,78.0,76.0,30.20,South,180,0.0,4.0,93,0.00,,,0.00,Rainwise IP-100,2013-06-10 12:16:00,
2013-06-10 08:21:00,78.0,76.0,30.20,SSW,202,0.0,2.0,93,0.00,,,0.00,Rainwise IP-100,2013-06-10 12:21:00,
2013-06-10 08:26:00,79.0,76.8,30.20,SSW,202,0.0,4.0,93,0.00,,,0.00,Rainwise IP-100,2013-06-10 12:26:00,
2013-06-10 08:31:00,79.0,76.5,30.20,South,180,0.0,4.0,92,0.00,,,0.00,Rainwise IP-100,2013-06-10 12:31:00,
2013-06-10 08:36:00,79.0,76.3,30.20,South,180,0.0,4.0,91,0.00,,,0.00,Rainwise IP-100,2013-06-10 12:36:00,
2013-06-10 08:41:00,79.0,75.5,30.20,South,180,0.0,7.0,89,0.00,,,0.00,Rainwise IP-100,2013-06-10 12:41:00,
2013-06-10 08:46:00,79.0,75.0,30.20,SW,225,0.0,2.0,88,0.00,,,0.00,Rainwise IP-100,2013-06-10 12:46:00,
2013-06-10 08:51:00,79.0,75.0,30.20,SW,225,6.0,6.0,88,0.00,,,0.00,Rainwise IP-100,2013-06-10 12:51:00,
2013-06-10 08:56:00,79.0,75.0,30.20,SSW,202,0.0,6.0,88,0.00,,,0.00,Rainwise IP-100,2013-06-10 12:56:00,
2013-06-10 09:01:00,80.0,76.0,30.20,SW,225,6.0,6.0,87,0.00,,,0.00,Rainwise IP-100,2013-06-10 13:01:00,
2013-06-10 09:06:00,80.0,76.0,30.20,South,180,0.0,6.0,87,0.00,,,0.00,Rainwise IP-100,2013-06-10 13:06:00,
2013-06-10 09:11:00,80.0,75.0,30.21,South,180,0.0,7.0,85,0.00,,,0.00,Rainwise IP-100,2013-06-10 13:11:00,
2013-06-10 09:16:00,80.0,75.0,30.21,SSE,157,0.0,6.0,85,0.00,,,0.00,Rainwise IP-100,2013-06-10 13:16:00,
2013-06-10 09:21:00,80.0,75.0,30.21,South,180,0.0,4.0,85,0.00,,,0.00,Rainwise IP-100,2013-06-10 13:21:00,
2013-06-10 09:26:00,80.0,75.0,30.21,North,360,0.0,4.0,85,0.00,,,0.00,Rainwise IP-100,2013-06-10 13:26:00,
2013-06-10 09:31:00,81.0,75.5,30.21,SSW,202,3.0,10.0,83,0.00,,,0.00,Rainwise IP-100,2013-06-10 13:31:00,
2013-06-10 09:36:00,82.0,75.5,30.21,South,180,3.0,10.0,81,0.00,,,0.00,Rainwise IP-100,2013-06-10 13:36:00,
2013-06-10 09:41:00,82.0,75.0,30.21,SE,135,0.0,6.0,80,0.00,,,0.00,Rainwise IP-100,2013-06-10 13:41:00,
2013-06-10 09:46:00,83.0,76.0,30.22,SSW,202,0.0,3.0,79,0.00,,,0.00,Rainwise IP-100,2013-06-10 13:46:00,
2013-06-10 09:51:00,83.0,75.5,30.21,South,180,0.0,5.0,78,0.00,,,0.00,Rainwise IP-100,2013-06-10 13:51:00,
2013-06-10 09:56:00,83.0,74.7,30.22,SSW,202,0.0,8.0,76,0.00,,,0.00,Rainwise IP-100,2013-06-10 13:56:00,
2013-06-10 10:01:00,83.0,74.7,30.22,SSE,157,0.0,12.0,76,0.00,,,0.00,Rainwise IP-100,2013-06-10 14:01:00,
2013-06-10 10:06:00,84.0,76.0,30.22,South,180,0.0,4.0,76,0.00,,,0.00,Rainwise IP-100,2013-06-10 14:06:00,
2013-06-10 10:11:00,84.0,75.5,30.22,SSW,202,0.0,15.0,75,0.00,,,0.00,Rainwise IP-100,2013-06-10 14:11:00,
2013-06-10 10:16:00,84.0,76.0,30.22,South,180,0.0,7.0,76,0.00,,,0.00,Rainwise IP-100,2013-06-10 14:16:00,
2013-06-10 10:21:00,85.0,75.0,30.22,SSW,202,0.0,0.0,73,0.00,,,0.00,Rainwise IP-100,2013-06-10 14:21:00,
2013-06-10 10:26:00,84.0,74.3,30.22,South,180,0.0,0.0,73,0.00,,,0.00,Rainwise IP-100,2013-06-10 14:26:00,
2013-06-10 10:31:00,85.0,75.0,30.22,SSE,157,0.0,7.0,73,0.00,,,0.00,Rainwise IP-100,2013-06-10 14:31:00,
2013-06-10 10:36:00,85.0,74.7,30.22,South,180,0.0,3.0,72,0.00,,,0.00,Rainwise IP-100,2013-06-10 14:36:00,
2013-06-10 10:41:00,85.0,74.0,30.22,SW,225,2.0,0.0,70,0.00,,,0.00,Rainwise IP-100,2013-06-10 14:41:00,
2013-06-10 10:46:00,85.0,74.0,30.22,West,270,1.0,7.0,70,0.00,,,0.00,Rainwise IP-100,2013-06-10 14:46:00,
2013-06-10 10:51:00,85.0,74.0,30.22,South,180,4.0,6.0,70,0.00,,,0.00,Rainwise IP-100,2013-06-10 14:51:00,
2013-06-10 10:56:00,86.0,75.0,30.22,South,180,6.0,7.0,70,0.00,,,0.00,Rainwise IP-100,2013-06-10 14:56:00,
2013-06-10 11:01:00,86.0,75.5,30.22,South,180,0.0,6.0,71,0.00,,,0.00,Rainwise IP-100,2013-06-10 15:01:00,
2013-06-10 11:06:00,85.0,74.7,30.22,SSE,157,0.0,5.0,72,0.00,,,0.00,Rainwise IP-100,2013-06-10 15:06:00,
2013-06-10 11:11:00,86.0,75.0,30.22,South,180,0.0,6.0,70,0.00,,,0.00,Rainwise IP-100,2013-06-10 15:11:00,
2013-06-10 11:16:00,87.0,76.0,30.22,SW,225,3.0,0.0,70,0.00,,,0.00,Rainwise IP-100,2013-06-10 15:16:00,
2013-06-10 11:21:00,86.0,74.0,30.22,SSE,157,0.0,4.0,68,0.00,,,0.00,Rainwise IP-100,2013-06-10 15:21:00,
2013-06-10 11:26:00,86.0,74.0,30.22,SE,135,0.0,4.0,68,0.00,,,0.00,Rainwise IP-100,2013-06-10 15:26:00,
2013-06-10 11:31:00,85.0,74.0,30.22,South,180,0.0,2.0,70,0.00,,,0.00,Rainwise IP-100,2013-06-10 15:31:00,
2013-06-10 11:37:00,85.0,74.3,30.22,South,180,0.0,5.0,71,0.00,,,0.00,Rainwise IP-100,2013-06-10 15:37:00,
2013-06-10 11:42:00,85.0,74.3,30.21,SSW,202,0.0,4.0,71,0.00,,,0.00,Rainwise IP-100,2013-06-10 15:42:00,
2013-06-10 11:47:00,84.0,74.3,30.21,South,180,0.0,0.0,73,0.00,,,0.00,Rainwise IP-100,2013-06-10 15:47:00,
2013-06-10 11:52:00,85.0,76.0,30.20,South,180,2.0,4.0,74,0.00,,,0.00,Rainwise IP-100,2013-06-10 15:52:00,
2013-06-10 11:57:00,84.0,75.5,30.20,SSW,202,3.0,7.0,75,0.00,,,0.00,Rainwise IP-100,2013-06-10 15:57:00,
2013-06-10 12:02:00,85.0,75.0,30.20,SSW,202,0.0,6.0,73,0.00,,,0.00,Rainwise IP-100,2013-06-10 16:02:00,
2013-06-10 12:07:00,85.0,74.3,30.20,South,180,0.0,4.0,71,0.00,,,0.00,Rainwise IP-100,2013-06-10 16:07:00,
2013-06-10 12:12:00,85.0,74.7,30.20,SE,135,0.0,6.0,72,0.00,,,0.00,Rainwise IP-100,2013-06-10 16:12:00,
2013-06-10 12:17:00,85.0,75.0,30.20,South,180,0.0,5.0,73,0.00,,,0.00,Rainwise IP-100,2013-06-10 16:17:00,
2013-06-10 12:22:00,85.0,75.0,30.20,SSW,202,0.0,6.0,73,0.00,,,0.00,Rainwise IP-100,2013-06-10 16:22:00,
2013-06-10 12:27:00,84.0,75.5,30.20,SW,225,0.0,5.0,75,0.00,,,0.00,Rainwise IP-100,2013-06-10 16:27:00,
2013-06-10 12:32:00,84.0,74.3,30.20,South,180,0.0,4.0,73,0.00,,,0.00,Rainwise IP-100,2013-06-10 16:32:00,
2013-06-10 12:37:00,84.0,74.7,30.20,ENE,67,0.0,3.0,74,0.00,,,0.00,Rainwise IP-100,2013-06-10 16:37:00,
2013-06-10 12:42:00,84.0,75.5,30.19,South,180,0.0,4.0,75,0.00,,,0.00,Rainwise IP-100,2013-06-10 16:42:00,
2013-06-10 12:47:00,84.0,75.5,30.19,SE,135,0.0,5.0,75,0.00,,,0.00,Rainwise IP-100,2013-06-10 16:47:00,
2013-06-10 12:52:00,84.0,75.5,30.19,SSW,202,0.0,6.0,75,0.00,,,0.00,Rainwise IP-100,2013-06-10 16:52:00,
2013-06-10 12:57:00,85.0,76.3,30.19,South,180,0.0,6.0,75,0.00,,,0.00,Rainwise IP-100,2013-06-10 16:57:00,
2013-06-10 13:02:00,85.0,76.3,30.18,ESE,112,0.0,2.0,75,0.00,,,0.00,Rainwise IP-100,2013-06-10 17:02:00,
2013-06-10 13:07:00,84.0,75.5,30.19,South,180,0.0,6.0,75,0.00,,,0.00,Rainwise IP-100,2013-06-10 17:07:00,
2013-06-10 13:12:00,85.0,76.5,30.19,South,180,0.0,4.0,76,0.00,,,0.00,Rainwise IP-100,2013-06-10 17:12:00,
2013-06-10 13:17:00,85.0,76.5,30.18,WSW,247,0.0,3.0,76,0.00,,,0.00,Rainwise IP-100,2013-06-10 17:17:00,
2013-06-10 13:22:00,85.0,76.0,30.18,SE,135,0.0,0.0,74,0.00,,,0.00,Rainwise IP-100,2013-06-10 17:22:00,
2013-06-10 13:27:00,85.0,76.0,30.18,SE,135,0.0,0.0,74,0.00,,,0.00,Rainwise IP-100,2013-06-10 17:27:00,
2013-06-10 13:32:00,85.0,75.0,30.18,South,180,0.0,0.0,73,0.00,,,0.00,Rainwise IP-100,2013-06-10 17:32:00,
2013-06-10 13:37:00,86.0,76.3,30.18,South,180,0.0,0.0,73,0.00,,,0.00,Rainwise IP-100,2013-06-10 17:37:00,
2013-06-10 13:42:00,86.0,76.3,30.18,SSW,202,0.0,0.0,73,0.00,,,0.00,Rainwise IP-100,2013-06-10 17:42:00,
2013-06-10 13:47:00,86.0,75.5,30.18,SSE,157,0.0,1.0,71,0.00,,,0.00,Rainwise IP-100,2013-06-10 17:47:00,
2013-06-10 13:52:00,86.0,76.0,30.18,SE,135,0.0,6.0,72,0.00,,,0.00,Rainwise IP-100,2013-06-10 17:52:00,
2013-06-10 13:57:00,86.0,76.0,30.17,SSE,157,0.0,0.0,72,0.00,,,0.00,Rainwise IP-100,2013-06-10 17:57:00,
2013-06-10 14:02:00,86.0,75.5,30.18,South,180,0.0,0.0,71,0.00,,,0.00,Rainwise IP-100,2013-06-10 18:02:00,
2013-06-10 14:07:00,86.0,75.0,30.18,SW,225,0.0,0.0,70,0.00,,,0.00,Rainwise IP-100,2013-06-10 18:07:00,
2013-06-10 14:12:00,86.0,76.3,30.17,South,180,0.0,0.0,73,0.00,,,0.00,Rainwise IP-100,2013-06-10 18:12:00,
2013-06-10 14:17:00,86.0,75.5,30.17,SSW,202,0.0,0.0,71,0.00,,,0.00,Rainwise IP-100,2013-06-10 18:17:00,
2013-06-10 14:22:00,86.0,76.0,30.17,SE,135,0.0,0.0,72,0.00,,,0.00,Rainwise IP-100,2013-06-10 18:22:00,
2013-06-10 14:27:00,86.0,76.0,30.17,SSW,202,0.0,0.0,72,0.00,,,0.00,Rainwise IP-100,2013-06-10 18:27:00,
2013-06-10 14:32:00,86.0,75.0,30.17,SW,225,0.0,6.0,70,0.00,,,0.00,Rainwise IP-100,2013-06-10 18:32:00,
2013-06-10 14:37:00,87.0,76.0,30.17,SSW,202,0.0,4.0,70,0.00,,,0.00,Rainwise IP-100,2013-06-10 18:37:00,
2013-06-10 14:42:00,86.0,75.5,30.17,SW,225,0.0,5.0,71,0.00,,,0.00,Rainwise IP-100,2013-06-10 18:42:00,
2013-06-10 14:47:00,86.0,75.0,30.16,South,180,0.0,7.0,70,0.00,,,0.00,Rainwise IP-100,2013-06-10 18:47:00,
2013-06-10 14:52:00,85.0,74.7,30.17,SSE,157,0.0,6.0,72,0.00,,,0.00,Rainwise IP-100,2013-06-10 18:52:00,
2013-06-10 14:57:00,86.0,76.0,30.17,SW,225,5.0,6.0,72,0.00,,,0.00,Rainwise IP-100,2013-06-10 18:57:00,
2013-06-10 15:02:00,86.0,75.0,30.17,South,180,0.0,7.0,70,0.00,,,0.00,Rainwise IP-100,2013-06-10 19:02:00,
2013-06-10 15:07:00,86.0,75.5,30.17,South,180,0.0,5.0,71,0.00,,,0.00,Rainwise IP-100,2013-06-10 19:07:00,
2013-06-10 15:12:00,86.0,76.0,30.16,SSW,202,0.0,0.0,72,0.00,,,0.00,Rainwise IP-100,2013-06-10 19:12:00,
2013-06-10 15:17:00,86.0,76.3,30.16,SW,225,0.0,0.0,73,0.00,,,0.00,Rainwise IP-100,2013-06-10 19:17:00,
2013-06-10 15:22:00,87.0,76.0,30.16,South,180,0.0,0.0,70,0.00,,,0.00,Rainwise IP-100,2013-06-10 19:22:00,
2013-06-10 15:27:00,86.0,76.0,30.16,South,180,0.0,0.0,72,0.00,,,0.00,Rainwise IP-100,2013-06-10 19:27:00,
2013-06-10 15:32:00,86.0,76.3,30.15,South,180,0.0,0.0,73,0.00,,,0.00,Rainwise IP-100,2013-06-10 19:32:00,
2013-06-10 15:37:00,86.0,76.0,30.15,South,180,0.0,0.0,72,0.00,,,0.00,Rainwise IP-100,2013-06-10 19:37:00,
2013-06-10 15:42:00,86.0,76.0,30.14,SSE,157,0.0,0.0,72,0.00,,,0.00,Rainwise IP-100,2013-06-10 19:42:00,
2013-06-10 15:47:00,85.0,76.0,30.14,SW,225,0.0,2.0,74,0.00,,,0.00,Rainwise IP-100,2013-06-10 19:47:00,
2013-06-10 15:52:00,86.0,76.3,30.14,SSW,202,0.0,3.0,73,0.00,,,0.00,Rainwise IP-100,2013-06-10 19:52:00,
2013-06-10 15:57:00,86.0,76.0,30.14,South,180,0.0,4.0,72,0.00,,,0.00,Rainwise IP-100,2013-06-10 19:57:00,
2013-06-10 16:02:00,86.0,76.0,30.14,SE,135,0.0,2.0,72,0.00,,,0.00,Rainwise IP-100,2013-06-10 20:02:00,
2013-06-10 16:07:00,86.0,75.0,30.14,SSE,157,0.0,5.0,70,0.00,,,0.00,Rainwise IP-100,2013-06-10 20:07:00,
2013-06-10 16:12:00,85.0,75.0,30.14,SSW,202,0.0,4.0,73,0.00,,,0.00,Rainwise IP-100,2013-06-10 20:12:00,
2013-06-10 16:17:00,85.0,75.0,30.14,SW,225,4.0,6.0,73,0.00,,,0.00,Rainwise IP-100,2013-06-10 20:17:00,
2013-06-10 16:22:00,84.0,76.3,30.12,South,180,0.0,5.0,77,0.00,,,0.00,Rainwise IP-100,2013-06-10 20:22:00,
2013-06-10 16:27:00,83.0,75.5,30.12,SSW,202,2.0,5.0,78,0.00,,,0.00,Rainwise IP-100,2013-06-10 20:27:00,
2013-06-10 16:32:00,83.0,76.3,30.12,South,180,4.0,6.0,80,0.00,,,0.00,Rainwise IP-100,2013-06-10 20:32:00,
2013-06-10 16:37:00,82.0,75.5,30.12,South,180,3.0,7.0,81,0.00,,,0.00,Rainwise IP-100,2013-06-10 20:37:00,
2013-06-10 16:42:00,81.0,75.5,30.12,SE,135,0.0,7.0,83,0.00,,,0.00,Rainwise IP-100,2013-06-10 20:42:00,
2013-06-10 16:47:00,81.0,76.3,30.12,SE,135,0.0,7.0,85,0.00,,,0.00,Rainwise IP-100,2013-06-10 20:47:00,
2013-06-10 16:52:00,81.0,76.5,30.12,South,180,1.0,7.0,86,0.00,,,0.00,Rainwise IP-100,2013-06-10 20:52:00,
2013-06-10 16:57:00,80.0,76.0,30.12,SSW,202,4.0,4.0,87,0.00,,,0.00,Rainwise IP-100,2013-06-10 20:57:00,
2013-06-10 17:02:00,80.0,76.0,30.12,SSW,202,0.0,5.0,87,0.00,,,0.00,Rainwise IP-100,2013-06-10 21:02:00,
2013-06-10 17:07:00,80.0,76.3,30.12,SSE,157,0.0,4.0,88,0.00,,,0.00,Rainwise IP-100,2013-06-10 21:07:00,
2013-06-10 17:12:00,80.0,76.0,30.11,South,180,0.0,6.0,87,0.00,,,0.00,Rainwise IP-100,2013-06-10 21:12:00,
2013-06-10 17:17:00,81.0,76.5,30.11,South,180,0.0,5.0,86,0.00,,,0.00,Rainwise IP-100,2013-06-10 21:17:00,
2013-06-10 17:22:00,81.0,76.3,30.12,South,180,1.0,6.0,85,0.00,,,0.00,Rainwise IP-100,2013-06-10 21:22:00,
2013-06-10 17:27:00,81.0,75.0,30.12,SSE,157,5.0,6.0,82,0.00,,,0.00,Rainwise IP-100,2013-06-10 21:27:00,
2013-06-10 17:32:00,81.0,75.5,30.12,South,180,4.0,6.0,83,0.00,,,0.00,Rainwise IP-100,2013-06-10 21:32:00,
2013-06-10 17:37:00,81.0,76.0,30.12,SSW,202,2.0,6.0,84,0.00,,,0.00,Rainwise IP-100,2013-06-10 21:37:00,
2013-06-10 17:42:00,80.0,74.7,30.11,South,180,0.0,6.0,84,0.00,,,0.00,Rainwise IP-100,2013-06-10 21:42:00,
2013-06-10 17:47:00,80.0,75.0,30.11,SSW,202,0.0,5.0,85,0.00,,,0.00,Rainwise IP-100,2013-06-10 21:47:00,
2013-06-10 17:52:00,80.0,75.0,30.10,South,180,3.0,6.0,85,0.00,,,0.00,Rainwise IP-100,2013-06-10 21:52:00,
2013-06-10 17:57:00,80.0,75.0,30.10,South,180,2.0,5.0,85,0.00,,,0.00,Rainwise IP-100,2013-06-10 21:57:00,
2013-06-10 18:02:00,80.0,75.0,30.10,South,180,0.0,5.0,85,0.00,,,0.00,Rainwise IP-100,2013-06-10 22:02:00,
2013-06-10 18:07:00,80.0,75.0,30.10,SSW,202,0.0,4.0,85,0.00,,,0.00,Rainwise IP-100,2013-06-10 22:07:00,
2013-06-10 18:12:00,81.0,75.5,30.10,South,180,4.0,4.0,83,0.00,,,0.00,Rainwise IP-100,2013-06-10 22:12:00,
2013-06-10 18:17:00,81.0,75.0,30.09,SE,135,0.0,4.0,82,0.00,,,0.00,Rainwise IP-100,2013-06-10 22:17:00,
2013-06-10 18:22:00,81.0,74.7,30.09,SSW,202,4.0,6.0,81,0.00,,,0.00,Rainwise IP-100,2013-06-10 22:22:00,
2013-06-10 18:27:00,80.0,74.0,30.10,SSE,157,3.0,6.0,83,0.00,,,0.00,Rainwise IP-100,2013-06-10 22:27:00,
2013-06-10 18:32:00,80.0,75.0,30.10,South,180,3.0,6.0,85,0.00,,,0.00,Rainwise IP-100,2013-06-10 22:32:00,
2013-06-10 18:37:00,80.0,76.0,30.10,South,180,0.0,5.0,87,0.00,,,0.00,Rainwise IP-100,2013-06-10 22:37:00,
2013-06-10 18:42:00,79.0,75.0,30.10,South,180,0.0,3.0,88,0.00,,,0.00,Rainwise IP-100,2013-06-10 22:42:00,
2013-06-10 18:47:00,79.0,76.0,30.10,SSE,157,0.0,7.0,90,0.00,,,0.00,Rainwise IP-100,2013-06-10 22:47:00,
2013-06-10 18:52:00,78.0,75.5,30.10,SE,135,0.0,0.0,92,0.00,,,0.00,Rainwise IP-100,2013-06-10 22:52:00,
2013-06-10 18:57:00,78.0,76.0,30.09,SSE,157,0.0,4.0,93,0.00,,,0.00,Rainwise IP-100,2013-06-10 22:57:00,
2013-06-10 19:02:00,78.0,76.0,30.09,South,180,0.0,0.0,93,0.00,,,0.00,Rainwise IP-100,2013-06-10 23:02:00,
2013-06-10 19:07:00,78.0,76.0,30.09,South,180,1.0,7.0,93,0.00,,,0.00,Rainwise IP-100,2013-06-10 23:07:00,
2013-06-10 19:12:00,78.0,76.0,30.09,South,180,0.0,4.0,93,0.00,,,0.00,Rainwise IP-100,2013-06-10 23:12:00,
2013-06-10 19:17:00,78.0,76.0,30.09,South,180,0.0,0.0,93,0.00,,,0.00,Rainwise IP-100,2013-06-10 23:17:00,
2013-06-10 19:22:00,78.0,75.5,30.09,South,180,0.0,0.0,92,0.00,,,0.00,Rainwise IP-100,2013-06-10 23:22:00,
2013-06-10 19:27:00,78.0,74.7,30.09,SSW,202,0.0,3.0,90,0.00,,,0.00,Rainwise IP-100,2013-06-10 23:27:00,
2013-06-10 19:32:00,78.0,74.7,30.09,SSE,157,0.0,0.0,90,0.00,,,0.00,Rainwise IP-100,2013-06-10 23:32:00,
2013-06-10 19:37:00,78.0,75.0,30.09,ESE,112,0.0,0.0,91,0.00,,,0.00,Rainwise IP-100,2013-06-10 23:37:00,
2013-06-10 19:42:00,78.0,75.5,30.09,South,180,0.0,1.0,92,0.00,,,0.00,Rainwise IP-100,2013-06-10 23:42:00,
2013-06-10 19:47:00,78.0,75.5,30.10,SSE,157,0.0,0.0,92,0.00,,,0.00,Rainwise IP-100,2013-06-10 23:47:00,
2013-06-10 19:52:00,78.0,75.5,30.11,South,180,0.0,3.0,92,0.00,,,0.00,Rainwise IP-100,2013-06-10 23:52:00,
2013-06-10 19:57:00,78.0,75.5,30.11,South,180,0.0,4.0,92,0.00,,,0.00,Rainwise IP-100,2013-06-10 23:57:00,
2013-06-10 20:02:00,78.0,75.5,30.12,South,180,0.0,3.0,92,0.00,,,0.00,Rainwise IP-100,2013-06-11 00:02:00,
2013-06-10 20:07:00,78.0,75.5,30.13,South,180,0.0,4.0,92,0.00,,,0.00,Rainwise IP-100,2013-06-11 00:07:00,
2013-06-10 20:12:00,78.0,76.0,30.13,South,180,0.0,3.0,93,0.00,,,0.00,Rainwise IP-100,2013-06-11 00:12:00,
2013-06-10 20:17:00,78.0,76.0,30.14,South,180,0.0,2.0,93,0.00,,,0.00,Rainwise IP-100,2013-06-11 00:17:00,
2013-06-10 20:22:00,78.0,76.0,30.12,SSW,202,0.0,4.0,93,0.00,,,0.00,Rainwise IP-100,2013-06-11 00:22:00,
2013-06-10 20:27:00,77.0,74.7,30.12,SSW,202,2.0,4.0,93,0.00,,,0.00,Rainwise IP-100,2013-06-11 00:27:00,
2013-06-10 20:32:00,77.0,74.7,30.12,South,180,4.0,4.0,93,0.00,,,0.00,Rainwise IP-100,2013-06-11 00:32:00,
2013-06-10 20:37:00,77.0,74.7,30.13,South,180,0.0,5.0,93,0.00,,,0.00,Rainwise IP-100,2013-06-11 00:37:00,
2013-06-10 20:42:00,77.0,74.7,30.13,South,180,0.0,5.0,93,0.00,,,0.00,Rainwise IP-100,2013-06-11 00:42:00,
2013-06-10 20:47:00,77.0,74.7,30.13,South,180,0.0,5.0,93,0.00,,,0.00,Rainwise IP-100,2013-06-11 00:47:00,
2013-06-10 20:52:00,77.0,74.7,30.13,South,180,2.0,6.0,93,0.00,,,0.00,Rainwise IP-100,2013-06-11 00:52:00,
2013-06-10 20:57:00,78.0,76.0,30.14,SW,225,2.0,6.0,93,0.00,,,0.00,Rainwise IP-100,2013-06-11 00:57:00,
2013-06-10 21:02:00,77.0,71.0,30.16,SW,225,13.0,27.0,81,0.00,,,0.00,Rainwise IP-100,2013-06-11 01:02:00,
2013-06-10 21:07:00,72.0,71.0,30.18,SW,225,9.0,26.0,96,0.60,,,0.12,Rainwise IP-100,2013-06-11 01:07:00,
2013-06-10 21:12:00,71.0,71.0,30.18,SSW,202,3.0,15.0,100,1.80,,,0.31,Rainwise IP-100,2013-06-11 01:12:00,
2013-06-10 21:17:00,70.0,70.0,30.16,SW,225,5.0,9.0,100,1.50,,,0.35,Rainwise IP-100,2013-06-11 01:17:00,
2013-06-10 21:22:00,69.0,69.0,30.16,SW,225,0.0,8.0,100,0.36,,,0.36,Rainwise IP-100,2013-06-11 01:22:00,
2013-06-10 21:27:00,69.0,69.0,30.15,SW,225,0.0,4.0,100,0.06,,,0.36,Rainwise IP-100,2013-06-11 01:27:00,
2013-06-10 21:32:00,69.0,69.0,30.14,SW,225,0.0,0.0,100,0.06,,,0.37,Rainwise IP-100,2013-06-11 01:32:00,
2013-06-10 21:37:00,69.0,69.0,30.14,SW,225,0.0,0.0,100,0.06,,,0.37,Rainwise IP-100,2013-06-11 01:37:00,
2013-06-10 21:42:00,69.0,69.0,30.14,SSW,202,0.0,0.0,100,0.00,,,0.37,Rainwise IP-100,2013-06-11 01:42:00,
2013-06-10 21:47:00,69.0,69.0,30.15,SSW,202,0.0,0.0,100,0.06,,,0.38,Rainwise IP-100,2013-06-11 01:47:00,
2013-06-10 21:52:00,69.0,69.0,30.15,SSW,202,0.0,0.0,100,0.12,,,0.39,Rainwise IP-100,2013-06-11 01:52:00,
2013-06-10 21:57:00,69.0,69.0,30.15,SSW,202,0.0,0.0,100,0.12,,,0.40,Rainwise IP-100,2013-06-11 01:57:00,
2013-06-10 22:02:00,69.0,69.0,30.14,SSW,202,0.0,0.0,100,0.12,,,0.41,Rainwise IP-100,2013-06-11 02:02:00,
2013-06-10 22:07:00,69.0,69.0,30.14,SSW,202,0.0,0.0,100,0.12,,,0.42,Rainwise IP-100,2013-06-11 02:07:00,
2013-06-10 22:12:00,69.0,69.0,30.14,SSW,202,0.0,0.0,100,0.12,,,0.44,Rainwise IP-100,2013-06-11 02:12:00,
2013-06-10 22:17:00,69.0,69.0,30.14,SSW,202,0.0,0.0,100,0.18,,,0.45,Rainwise IP-100,2013-06-11 02:17:00,
2013-06-10 22:22:00,69.0,69.0,30.14,SSW,202,0.0,0.0,100,0.30,,,0.48,Rainwise IP-100,2013-06-11 02:22:00,
2013-06-10 22:27:00,69.0,69.0,30.14,SSW,202,0.0,0.0,100,0.30,,,0.50,Rainwise IP-100,2013-06-11 02:27:00,
2013-06-10 22:32:00,69.0,69.0,30.14,SSW,202,0.0,0.0,100,0.24,,,0.52,Rainwise IP-100,2013-06-11 02:32:00,
2013-06-10 22:37:00,69.0,69.0,30.14,ESE,112,0.0,0.0,100,0.24,,,0.54,Rainwise IP-100,2013-06-11 02:37:00,
2013-06-10 22:42:00,69.0,69.0,30.14,ESE,112,0.0,0.0,100,0.24,,,0.56,Rainwise IP-100,2013-06-11 02:42:00,
2013-06-10 22:47:00,69.0,69.0,30.14,ESE,112,0.0,0.0,100,0.24,,,0.58,Rainwise IP-100,2013-06-11 02:47:00,
2013-06-10 22:52:00,69.0,69.0,30.14,ESE,112,0.0,0.0,100,0.18,,,0.59,Rainwise IP-100,2013-06-11 02:52:00,
2013-06-10 22:57:00,69.0,69.0,30.13,SSW,202,0.0,0.0,100,0.12,,,0.60,Rainwise IP-100,2013-06-11 02:57:00,
2013-06-10 23:02:00,69.0,69.0,30.13,SSW,202,0.0,0.0,100,0.06,,,0.60,Rainwise IP-100,2013-06-11 03:02:00,
2013-06-10 23:07:00,69.0,69.0,30.13,SSW,202,0.0,0.0,100,0.06,,,0.61,Rainwise IP-100,2013-06-11 03:07:00,
2013-06-10 23:12:00,69.0,69.0,30.12,SSW,202,0.0,0.0,100,0.06,,,0.61,Rainwise IP-100,2013-06-11 03:12:00,
2013-06-10 23:17:00,69.0,69.0,30.12,SSW,202,0.0,0.0,100,0.00,,,0.61,Rainwise IP-100,2013-06-11 03:17:00,
2013-06-10 23:22:00,69.0,69.0,30.12,SSW,202,0.0,0.0,100,0.06,,,0.62,Rainwise IP-100,2013-06-11 03:22:00,
2013-06-10 23:27:00,69.0,69.0,30.12,SSW,202,0.0,0.0,100,0.06,,,0.62,Rainwise IP-100,2013-06-11 03:27:00,
2013-06-10 23:32:00,69.0,69.0,30.12,SSW,202,0.0,0.0,100,0.00,,,0.62,Rainwise IP-100,2013-06-11 03:32:00,
2013-06-10 23:37:00,70.0,70.0,30.12,SSW,202,0.0,0.0,100,0.00,,,0.62,Rainwise IP-100,2013-06-11 03:37:00,
2013-06-10 23:42:00,70.0,70.0,30.11,SSW,202,0.0,0.0,100,0.00,,,0.62,Rainwise IP-100,2013-06-11 03:42:00,
2013-06-10 23:47:00,70.0,70.0,30.11,SSW,202,0.0,0.0,100,0.00,,,0.62,Rainwise IP-100,2013-06-11 03:47:00,
2013-06-10 23:52:00,70.0,70.0,30.10,SSW,202,0.0,0.0,100,0.00,,,0.62,Rainwise IP-100,2013-06-11 03:52:00,
2013-06-10 23:57:00,70.0,70.0,30.10,SSW,202,0.0,0.0,100,0.06,,,0.63,Rainwise IP-100,2013-06-11 03:57:00,